Wind_Speed
9 9 9 9 9 9 10 10 11 11 11 11 11 12 13 14 14 15 15 16 16 17 17 18 19 20 21 21 21 22 23 24 24 25 26 27 27 28
10 10 10 10 10 10 11 12 12 12 12 13 13 14 14 15 15 16 17 17 18 19 19 20 21 22 23 23 23 24 24 25 26 27 28 29 29 29
12 12 11 11 11 12 12 13 13 13 14 14 15 15 16 16 17 17 18 19 20 20 21 22 22 22 23 23 24 25 26 27 27 28 29 30 30 31
13 13 13 13 13 13 14 14 14 14 15 16 16 17 18 18 18 19 20 20 21 22 22 23 24 24 25 25 27 27 28 29 30 31 32 32 33 34
14 15 15 15 15 15 15 15 15 16 16 17 17 18 19 20 20 21 22 22 23 23 25 25 26 27 28 29 29 30 31 32 33 34 34 35 36 36
15 16 16 17 16 16 16 16 17 17 18 19 19 20 21 21 22 23 24 24 25 26 27 28 29 30 31 32 33 34 34 35 36 37 37 38 39 39
17 17 17 17 18 18 18 18 18 19 19 20 21 22 22 23 23 24 25 26 27 28 29 30 31 32 33 35 36 37 38 38 39 40 40 41 41 42
18 18 19 19 20 20 20 20 21 21 21 22 22 22 23 24 24 26 27 27 29 30 31 31 32 34 35 36 37 38 39 40 41 42 42 42 43 44
18 18 19 20 21 21 21 21 22 22 22 23 23 24 25 26 27 28 29 30 31 31 32 34 35 36 37 38 39 40 41 41 42 43 43 44 44 45
18 20 21 21 22 22 22 22 23 23 24 24 25 26 27 28 28 29 30 31 32 33 34 36 37 38 39 40 41 41 42 42 43 44 44 45 45 45
20 21 21 22 23 23 23 24 24 25 25 26 26 27 28 29 30 31 31 32 34 35 37 37 38 39 40 41 42 42 43 43 43 44 44 44 45 45
20 21 22 22 23 23 24 25 25 25 26 27 28 29 30 31 32 32 33 34 36 37 38 39 40 41 41 42 43 43 43 43 44 43 44 44 44 45
21 21 22 23 23 24 24 25 25 26 27 28 29 30 31 32 33 34 35 37 38 39 40 41 42 42 43 42 43 43 43 43 43 43 43 44 45 46
22 22 23 24 24 25 26 26 27 27 28 29 30 31 32 33 34 35 37 38 39 40 41 42 43 43 43 43 43 42 42 43 43 43 44 45 47 48
22 23 24 24 25 25 26 27 28 28 29 30 31 32 33 34 35 36 37 39 41 42 43 43 43 43 43 43 42 42 42 43 44 44 45 47 48 48
23 23 24 24 24 25 26 27 28 29 30 31 32 33 34 35 36 37 39 40 41 42 43 43 44 43 43 42 42 42 43 44 44 45 46 47 48 48
24 24 24 25 26 26 27 28 28 29 30 31 33 34 34 35 37 38 39 40 42 43 43 43 43 43 42 41 42 43 44 44 45 46 46 46 47 47
24 25 25 26 27 28 28 29 30 31 32 33 34 35 36 37 38 39 40 41 43 44 44 43 42 41 41 42 43 44 44 45 46 47 48 47 46 46
26 26 27 27 28 29 30 30 31 32 33 34 35 36 37 38 39 40 42 43 44 44 44 43 42 42 42 42 43 45 46 46 47 47 47 47 46 45
27 28 28 29 30 30 31 32 33 33 34 35 36 37 38 39 40 41 42 43 44 44 44 43 43 43 43 43 44 45 47 48 47 47 47 46 45 44
28 29 30 31 31 32 33 33 34 34 35 36 38 38 39 40 41 42 43 44 44 44 44 43 43 44 44 44 45 45 46 48 48 48 47 45 44 43
30 30 31 32 33 33 34 34 35 35 36 38 38 39 39 40 41 42 43 44 44 45 44 43 43 44 44 44 45 45 46 46 47 47 47 47 45 44
31 31 32 33 33 34 35 35 36 36 37 38 39 40 41 42 42 43 44 44 44 44 44 44 43 44 44 44 45 45 46 46 45 45 45 45 45 44
Wind_Direction
286 285 285 286 290 293 298 303 304 305 306 308 310 310 310 309 310 310 309 309 310 310 310 310 309 308 307 305 304 303 299 297 295 296 296 294 292 291
287 288 288 287 290 295 299 302 303 303 304 305 306 307 309 310 310 310 309 309 309 309 309 309 308 306 306 304 303 303 301 300 299 298 297 295 295 295
285 286 287 287 289 294 299 301 301 301 303 304 305 305 306 307 308 309 309 309 310 309 310 309 310 309 309 308 307 305 303 302 301 301 300 299 297 296
282 284 286 286 289 292 295 297 299 301 301 302 303 304 305 306 306 307 308 308 307 308 308 308 307 307 307 306 305 304 304 303 301 299 298 298 297 296
282 283 285 286 289 291 292 295 296 298 299 300 301 302 303 305 306 306 307 306 306 306 307 307 306 305 305 304 304 303 303 303 302 301 298 298 296 294
282 283 285 286 288 290 291 292 293 294 296 298 299 300 301 303 304 305 306 306 305 306 305 305 305 305 304 304 304 303 303 302 301 300 300 298 297 295
282 284 285 287 289 290 290 290 291 292 294 297 299 300 301 302 303 305 305 306 306 306 306 306 305 305 304 304 303 303 303 302 301 300 300 299 298 297
282 283 286 288 289 289 290 290 291 292 294 295 297 299 300 301 303 305 306 306 306 305 305 305 304 304 304 304 303 303 303 302 301 301 300 299 298 297
283 285 286 287 288 289 289 290 291 293 294 295 298 298 299 300 303 304 305 305 306 305 305 305 305 305 305 304 304 303 303 303 302 301 300 300 299 298
285 287 288 289 289 288 288 289 291 293 295 296 297 298 299 300 302 304 304 305 306 306 306 306 306 306 306 306 305 304 304 304 304 303 302 301 300 300
287 288 288 289 288 288 289 290 291 292 295 296 296 297 299 301 302 304 305 305 306 307 307 307 306 306 306 306 306 305 304 304 304 304 303 302 301 301
290 289 289 289 290 290 291 292 292 293 294 294 296 298 300 301 303 304 305 305 306 307 307 307 307 307 306 306 305 305 304 304 304 304 304 303 303 303
289 291 291 290 291 291 293 294 293 294 296 296 297 299 301 302 303 304 305 306 307 307 307 307 308 307 307 306 306 306 305 305 304 304 304 304 304 304
289 290 291 292 292 292 293 295 295 295 297 298 298 300 301 303 303 304 306 307 307 308 308 308 308 308 307 307 307 306 305 305 306 305 305 305 305 305
289 291 292 292 293 294 295 297 297 297 297 298 300 301 302 302 303 305 306 308 308 309 309 309 309 309 308 308 307 306 306 306 307 307 307 307 306 306
290 292 294 295 296 297 298 299 300 300 299 300 301 302 303 304 305 306 307 308 309 310 310 310 310 309 308 307 307 307 307 308 308 308 309 308 308 307
289 293 295 296 297 298 299 301 302 302 303 302 302 303 304 305 307 307 308 308 309 310 310 310 310 310 309 308 308 308 309 310 310 310 310 310 309 308
289 292 294 296 297 298 299 300 301 302 303 304 305 305 305 306 307 308 308 309 310 310 310 310 309 308 308 309 309 310 310 311 311 311 311 310 310 309
289 291 293 294 296 297 299 300 301 302 303 305 305 305 306 307 308 309 309 310 311 311 311 310 309 308 308 308 309 310 311 312 312 312 312 312 311 309
290 291 292 294 295 297 299 300 301 303 304 306 306 306 306 307 308 309 310 311 311 311 311 310 309 309 309 309 310 311 312 312 312 312 312 313 312 311
290 291 292 294 296 297 299 301 302 303 304 305 306 307 307 308 309 309 310 311 312 312 311 310 310 310 311 311 312 313 313 313 313 313 313 313 312 311
290 291 292 294 296 297 298 300 302 303 304 304 306 307 308 309 310 310 311 312 312 312 311 310 310 310 311 312 313 314 314 314 315 315 314 314 313 311
291 292 293 294 296 297 298 299 301 302 304 305 305 306 308 309 309 310 311 312 312 313 312 311 311 311 312 313 313 314 314 315 315 315 315 314 314 314
Height
5858 5858 5857 5857 5856 5856 5855 5855 5854 5853 5853 5851 5850 5849 5848 5846 5845 5844 5842 5840 5839 5837 5835 5833 5832 5830 5828 5826 5824 5822 5820 5819 5817 5815 5813 5811 5809 5807
5855 5855 5855 5855 5854 5854 5853 5852 5851 5851 5850 5849 5848 5846 5845 5844 5842 5840 5839 5837 5835 5833 5831 5829 5827 5825 5823 5821 5819 5817 5815 5813 5811 5809 5806 5804 5802 5800
5853 5852 5852 5852 5851 5851 5850 5849 5848 5848 5847 5845 5844 5843 5842 5840 5838 5837 5835 5833 5831 5829 5827 5825 5822 5820 5818 5815 5813 5811 5808 5806 5804 5801 5799 5797 5794 5792
5850 5849 5849 5849 5848 5847 5847 5846 5845 5844 5843 5842 5840 5839 5838 5836 5834 5833 5831 5828 5826 5824 5822 5819 5817 5814 5812 5810 5807 5804 5802 5799 5796 5793 5790 5788 5785 5783
5846 5846 5846 5845 5845 5844 5843 5842 5841 5840 5839 5838 5836 5835 5833 5831 5830 5828 5826 5823 5821 5819 5816 5813 5811 5808 5805 5803 5800 5797 5794 5791 5788 5785 5782 5778 5775 5773
5843 5842 5842 5841 5840 5840 5839 5838 5837 5836 5835 5833 5832 5830 5828 5826 5825 5822 5820 5818 5815 5813 5810 5807 5804 5801 5798 5795 5792 5788 5785 5782 5778 5775 5771 5768 5765 5761
5838 5838 5837 5837 5836 5835 5834 5833 5832 5831 5830 5828 5827 5825 5823 5821 5819 5817 5814 5812 5809 5806 5803 5800 5797 5794 5790 5786 5783 5779 5776 5772 5768 5764 5760 5756 5753 5749
5834 5833 5833 5832 5831 5830 5829 5828 5827 5826 5824 5823 5821 5819 5817 5815 5813 5810 5808 5805 5803 5800 5796 5793 5789 5786 5782 5778 5774 5769 5765 5761 5757 5752 5748 5744 5740 5736
5829 5828 5827 5826 5825 5824 5823 5822 5821 5819 5818 5817 5815 5813 5811 5809 5807 5804 5801 5798 5795 5792 5788 5784 5780 5776 5772 5767 5763 5759 5754 5749 5745 5740 5736 5732 5727 5723
5824 5823 5822 5821 5819 5818 5817 5816 5815 5813 5812 5810 5808 5806 5804 5802 5799 5797 5793 5790 5787 5783 5779 5776 5771 5767 5762 5757 5752 5747 5742 5738 5733 5728 5723 5718 5714 5709
5819 5817 5816 5815 5813 5812 5811 5810 5809 5807 5805 5803 5801 5799 5796 5794 5791 5788 5785 5782 5779 5775 5770 5766 5761 5757 5752 5746 5741 5736 5731 5726 5720 5715 5710 5705 5700 5696
5813 5812 5810 5809 5807 5806 5805 5804 5802 5800 5798 5796 5794 5791 5789 5786 5783 5780 5776 5773 5769 5765 5761 5756 5751 5746 5742 5736 5730 5724 5719 5714 5708 5703 5698 5693 5688 5683
5808 5806 5804 5803 5801 5800 5798 5797 5795 5793 5791 5789 5786 5784 5781 5778 5774 5771 5767 5763 5759 5755 5750 5745 5740 5734 5729 5724 5719 5713 5707 5702 5697 5692 5686 5681 5675 5670
5802 5800 5799 5797 5795 5793 5791 5790 5788 5786 5784 5781 5779 5776 5773 5770 5766 5762 5758 5753 5749 5745 5739 5734 5729 5723 5718 5713 5708 5702 5696 5691 5685 5680 5674 5668 5663 5657
5795 5794 5792 5791 5789 5787 5785 5783 5780 5778 5776 5773 5770 5768 5764 5761 5757 5753 5749 5744 5739 5734 5728 5723 5717 5712 5706 5701 5696 5691 5686 5680 5674 5668 5662 5656 5650 5643
5789 5788 5786 5784 5782 5780 5778 5776 5773 5771 5768 5765 5762 5759 5755 5752 5748 5744 5740 5735 5730 5724 5718 5712 5706 5700 5695 5689 5684 5679 5674 5668 5663 5656 5650 5644 5637 5630
5782 5781 5779 5778 5776 5773 5771 5769 5766 5763 5760 5757 5754 5750 5747 5743 5739 5735 5730 5725 5720 5714 5708 5701 5695 5689 5683 5678 5673 5668 5662 5657 5651 5644 5638 5632 5624 5617
5776 5775 5773 5771 5769 5767 5764 5761 5758 5755 5752 5749 5745 5742 5738 5734 5730 5725 5720 5715 5709 5703 5697 5691 5685 5679 5674 5668 5662 5657 5651 5645 5639 5632 5625 5619 5613 5605
5769 5767 5765 5763 5761 5759 5756 5754 5751 5747 5744 5740 5737 5733 5729 5724 5720 5715 5710 5704 5698 5692 5686 5680 5674 5669 5664 5659 5652 5645 5639 5633 5627 5620 5613 5606 5600 5594
5761 5760 5758 5756 5753 5751 5748 5745 5742 5739 5735 5731 5727 5723 5719 5714 5710 5705 5699 5693 5688 5681 5675 5669 5663 5657 5652 5647 5641 5634 5627 5620 5614 5608 5602 5595 5588 5581
5753 5751 5749 5747 5745 5742 5740 5736 5733 5730 5726 5722 5718 5713 5709 5704 5699 5694 5689 5683 5677 5671 5664 5658 5652 5646 5640 5634 5629 5623 5615 5608 5601 5595 5589 5583 5577 5571
5745 5743 5741 5739 5736 5733 5730 5727 5724 5720 5716 5712 5708 5704 5699 5694 5689 5684 5678 5672 5666 5660 5653 5647 5641 5635 5629 5623 5617 5611 5605 5597 5589 5582 5575 5569 5564 5558
5736 5734 5732 5729 5727 5724 5721 5718 5714 5711 5707 5703 5698 5694 5689 5684 5678 5673 5667 5661 5655 5649 5642 5636 5630 5624 5618 5612 5606 5600 5593 5587 5580 5573 5566 5558 5552 5546